Location: Newark
(40.9833°N, 0.0333°W)
Time: 03:33:29
(UTC+00:00)

Transit 2A Rocket - Pass Details

Date: 05 November 2020
Orbit: 588 x 914 km, 66.7° (Epoch: 26 November)

Event Time Altitude Azimuth Distance (km) Brightness Sun altitude
Rises 08:28:59 0° 234° (SW) 3,538 8.3 17.5°
Reaches altitude 10° 08:31:43 10° 242° (WSW) 2,594 7.6 17.9°
Maximum altitude 08:37:17 37° 308° (NW) 1,367 6.0 18.6°
Drops below altitude 10° 08:42:40 10° 15° (NNE) 2,500 7.4 19.4°
Sets 08:45:17 0° 24° (NNE) 3,395 8.1 19.7°
